Theta_e
287 287 288 289 288 288 287 287 287 287 288 287 283 283 288 287 280 278 283 287 285 287 290 292 294 294 294 294 298 299 301 301 302 302 301 302 302 302 302 302 302 301 301 301 301 300 301 301 301 301 302 303 302 302 302 303 303 302 303 304 303 304 304 303 303 309 314 315 314 315 315 314 313 314 313 312 312 313 313 313 315 315 315 315 315 315 315
288 289 289 290 288 288 287 287 287 288 287 286 286 287 288 289 285 285 286 286 284 290 291 292 294 295 295 295 297 297 299 299 302 301 300 301 302 302 303 302 302 302 302 300 300 300 300 300 300 301 301 301 302 302 303 303 303 304 304 303 303 303 304 303 304 305 305 309 312 313 312 313 314 314 313 312 311 311 313 313 314 313 313 314 315 315 315
285 288 289 289 288 287 285 287 287 288 287 287 287 286 285 287 285 287 285 282 282 289 293 293 294 295 295 294 295 296 298 298 298 298 298 298 299 302 305 303 302 302 301 300 300 300 299 299 299 299 300 300 301 301 300 300 301 302 303 303 303 302 302 303 303 302 302 304 306 305 304 306 311 314 314 314 312 313 311 312 313 312 313 312 313 314 315
278 287 287 287 288 287 285 284 285 285 285 281 283 283 287 285 283 283 282 282 280 286 293 293 294 294 293 292 293 293 295 297 297 296 296 297 299 300 302 302 302 302 301 300 300 300 300 301 300 299 299 301 301 299 299 299 300 302 302 302 301 303 303 302 303 303 303 302 302 304 305 304 306 306 308 311 313 313 312 311 313 311 312 314 314 313 314
277 286 287 286 284 282 279 278 281 287 287 288 288 288 289 288 287 282 280 280 286 290 292 291 291 291 292 292 293 293 294 295 295 295 295 298 300 300 301 301 301 301 301 301 301 301 301 299 299 300 301 301 301 301 301 302 301 302 301 301 301 302 302 301 301 302 302 302 303 303 305 306 306 305 304 304 304 306 309 313 311 311 313 313 313 313 313
277 285 285 284 278 272 272 285 291 290 287 286 285 284 286 288 289 284 287 287 289 290 290 289 289 290 291 292 294 296 295 293 294 295 297 297 298 298 299 301 302 301 301 301 300 300 300 299 300 300 301 301 301 302 302 302 301 302 301 300 300 299 301 301 301 303 301 301 301 302 303 304 305 304 304 304 306 307 307 307 306 306 307 310 311 310 312
277 279 279 275 269 271 284 290 291 293 291 290 287 287 289 289 289 289 288 288 288 290 290 291 291 292 293 294 294 295 297 296 294 295 296 298 298 298 299 298 299 299 300 300 300 301 300 299 299 299 298 302 302 303 302 301 301 301 300 300 300 301 301 302 302 302 302 302 302 303 303 302 301 301 301 301 301 302 303 305 304 304 305 304 304 306 307
279 277 276 268 269 282 288 290 290 292 291 288 286 284 287 288 288 288 286 287 289 289 290 291 292 292 292 294 295 295 296 296 295 295 295 297 298 299 299 300 299 299 300 300 301 301 302 301 299 298 298 300 300 300 301 300 300 299 300 300 299 299 300 301 301 300 301 300 302 303 303 303 303 303 302 302 302 303 303 303 304 304 304 303 302 302 304
273 274 273 275 282 282 283 282 285 287 283 284 281 278 282 287 288 288 286 287 288 289 290 290 291 291 291 291 291 295 295 295 296 295 296 297 297 298 297 299 300 302 303 303 302 301 302 301 300 299 299 300 300 299 299 299 299 299 299 298 297 298 300 300 300 300 300 300 300 301 301 302 302 302 302 301 302 303 303 301 302 302 302 303 302 302 302
280 276 275 273 273 269 275 286 291 292 293 291 290 282 279 288 289 289 288 287 287 288 288 289 289 290 288 285 287 291 294 295 295 296 296 296 297 299 300 299 298 301 302 306 304 302 300 299 301 300 299 300 297 298 298 298 297 298 297 298 299 299 298 299 299 299 300 300 300 301 300 301 301 300 301 301 301 302 303 301 301 301 302 300 299 299 298
281 279 274 271 269 271 281 284 288 290 291 291 291 281 277 286 288 288 288 287 287 287 287 288 289 286 282 283 286 290 293 293 294 294 295 295 295 295 296 296 297 298 299 300 300 300 299 300 300 300 302 300 299 298 298 297 298 297 297 297 298 299 299 299 300 300 300 300 300 300 299 299 300 300 300 301 300 302 302 302 301 300 299 298 296 296 295
280 278 276 273 277 275 283 287 289 289 290 291 281 273 274 285 287 288 288 287 287 287 287 288 286 284 281 283 286 290 293 293 293 294 294 294 295 295 296 296 296 297 298 298 299 299 299 299 299 300 299 300 298 297 297 297 297 297 297 298 299 299 299 299 300 299 299 299 299 299 299 299 299 300 300 301 302 302 301 301 300 298 298 297 295 294 293
280 280 275 277 278 284 287 287 289 288 290 286 273 271 278 286 287 288 288 287 287 287 287 287 282 286 288 289 290 291 292 292 292 294 295 295 296 295 295 295 296 296 296 297 296 296 296 296 296 296 296 296 296 297 297 297 297 298 299 299 300 300 299 299 299 299 299 299 299 299 300 300 300 300 301 301 300 302 302 300 299 298 296 295 293 292 291
275 277 275 276 278 282 286 288 290 290 286 275 274 283 288 288 287 287 288 287 287 287 287 286 286 288 289 291 290 290 291 291 291 292 292 293 294 296 296 296 296 295 295 294 294 294 294 296 297 297 297 296 296 295 295 295 296 298 298 297 297 297 297 298 298 298 299 298 299 302 301 301 299 298 299 300 300 300 299 298 298 296 294 293 291 289 289
277 275 273 274 271 283 290 289 288 288 279 281 287 288 290 291 288 287 287 288 287 287 286 287 288 288 288 289 289 289 290 290 290 291 291 291 292 292 293 294 295 295 294 293 294 293 295 294 296 295 295 294 294 295 294 295 297 297 297 298 298 297 297 297 297 298 298 298 299 303 302 301 299 299 299 300 299 298 299 298 298 295 293 291 290 289 288
273 273 272 274 280 284 290 288 280 283 285 288 290 290 286 289 289 287 286 286 287 287 286 286 286 287 287 287 288 288 289 289 290 290 290 290 291 292 293 293 294 294 294 295 295 294 294 294 295 295 294 293 293 293 294 296 297 297 297 297 298 297 296 297 297 298 299 299 300 300 300 299 299 298 298 299 299 300 299 298 297 294 292 291 290 288 287
276 276 278 286 287 287 288 288 288 289 291 291 290 289 288 287 286 287 286 286 287 287 287 286 286 286 286 286 287 287 288 288 288 289 290 290 290 290 291 292 293 293 292 292 293 294 294 295 297 297 298 297 295 293 294 296 297 297 297 297 297 296 296 297 296 298 297 297 297 298 297 298 297 296 296 295 297 297 297 297 297 294 292 291 290 288 288
284 284 285 287 285 286 287 288 289 288 288 289 288 287 285 285 286 286 285 286 287 287 287 286 285 286 286 286 287 287 288 288 289 290 289 290 290 290 290 290 291 292 293 292 292 292 293 294 295 297 298 297 296 295 296 296 296 296 296 296 295 295 296 296 296 297 297 296 295 296 296 296 296 296 296 296 295 296 295 297 296 295 293 291 290 289 289
277 272 283 283 283 284 285 286 289 289 289 289 289 287 286 286 287 288 288 287 287 287 287 287 286 287 288 288 288 289 289 289 288 288 289 290 290 290 290 290 291 291 291 292 293 293 293 294 295 296 296 296 296 295 295 296 296 296 295 295 295 295 295 295 295 295 294 294 294 294 294 294 295 295 296 295 293 293 295 295 294 293 293 291 290 289 289
275 276 281 283 284 284 285 285 284 285 287 288 288 287 287 287 288 288 288 288 288 288 288 288 288 288 288 288 288 289 289 289 290 290 290 290 290 291 292 292 292 292 292 291 290 293 295 295 296 297 296 295 295 295 295 296 295 296 296 295 295 294 294 294 294 295 295 292 293 293 292 292 291 292 292 294 294 294 292 294 294 292 292 290 290 290 289
279 282 283 284 284 284 285 287 287 287 287 287 287 287 288 289 289 288 289 289 289 288 288 289 288 288 288 289 289 289 290 290 290 290 291 291 291 291 291 292 292 292 291 292 292 293 293 294 294 295 295 294 295 295 295 296 296 296 294 293 293 293 293 293 293 292 294 292 292 293 291 287 286 285 286 290 291 289 287 290 295 294 292 291 291 291 290
273 275 278 283 276 275 282 285 287 287 288 287 288 288 288 288 288 288 287 288 288 289 288 288 288 287 288 289 289 289 290 290 290 290 290 291 291 291 292 293 293 292 293 292 292 292 292 293 293 293 293 294 295 297 298 297 296 294 292 292 292 292 292 292 291 292 294 293 293 292 289 287 287 287 286 288 288 289 287 291 292 292 291 291 292 291 290
274 280 284 284 283 282 284 285 287 288 289 288 287 287 287 287 287 288 287 287 286 287 287 288 288 288 289 289 290 289 289 289 290 290 290 290 290 291 292 292 292 292 292 293 292 292 293 294 294 294 295 296 296 296 296 296 295 293 292 291 290 290 290 290 290 292 291 291 293 291 290 289 288 287 286 287 288 288 289 290 289 289 289 290 290 290 290
283 285 284 285 284 282 284 287 287 288 289 288 287 287 287 287 287 288 288 288 287 287 288 289 291 291 290 291 290 289 290 291 291 291 292 292 292 292 293 293 292 292 292 292 292 292 293 294 295 296 296 297 296 296 295 294 294 292 291 289 289 288 288 289 289 290 291 290 291 292 290 290 288 288 287 286 287 288 288 288 289 289 288 288 288 288 288
282 286 287 287 286 286 287 287 288 289 289 290 287 287 287 288 289 290 288 288 288 288 288 289 289 290 289 290 290 289 289 290 291 290 291 292 292 292 292 292 291 292 292 293 293 293 294 295 295 296 296 296 295 294 294 294 293 291 290 289 288 288 287 289 289 291 292 293 294 294 291 290 289 289 288 288 287 286 287 288 288 288 288 288 288 288 288
287 287 287 288 287 287 288 287 287 287 288 289 288 289 291 292 290 289 288 288 288 288 288 287 287 289 289 288 288 288 288 288 289 289 290 291 291 291 291 291 292 293 293 292 292 293 293 294 293 294 294 294 293 293 293 293 292 291 290 289 289 288 289 291 293 292 293 292 292 291 291 291 290 289 288 288 287 287 286 286 287 287 288 288 288 288 288
288 288 287 284 283 284 286 284 284 287 287 289 289 289 288 287 289 288 287 287 287 287 287 287 288 288 288 288 288 288 287 287 287 287 287 287 288 289 290 291 291 292 291 292 292 291 290 291 292 293 294 293 293 293 292 292 291 289 288 289 288 288 288 289 291 290 291 291 291 290 290 290 289 288 288 288 288 287 286 286 285 285 285 286 287 288 287
287 287 286 282 280 282 284 286 287 287 287 287 287 287 287 287 287 286 286 286 286 287 287 287 286 286 285 286 286 286 286 285 285 285 285 286 288 289 290 290 289 289 289 290 290 291 290 292 291 292 293 293 294 293 293 292 290 289 288 289 288 288 288 289 290 291 291 291 291 290 290 290 290 289 288 288 287 287 287 287 286 285 285 285 285 287 287
286 286 287 287 286 287 287 287 287 286 286 288 288 287 286 285 285 285 285 285 285 285 285 285 286 286 285 285 285 284 284 284 284 284 285 286 288 289 290 289 289 288 287 287 288 289 290 289 290 291 291 292 293 293 293 291 290 289 289 289 289 288 288 289 290 291 292 291 291 291 288 288 289 289 289 288 288 288 287 287 286 286 286 286 286 286 287
286 287 287 286 287 287 287 286 286 286 287 287 286 285 286 285 284 284 284 284 285 283 284 284 284 284 285 284 284 284 283 283 284 285 286 287 287 287 288 288 288 287 287 286 286 286 287 287 289 290 291 292 293 293 292 291 293 293 293 293 292 291 290 291 291 292 292 291 290 287 288 289 290 289 288 288 288 287 287 286 286 285 285 285 286 285 285
285 287 287 288 288 287 287 286 286 287 286 286 286 285 285 285 284 283 284 284 284 283 284 284 284 284 284 284 284 285 285 285 285 285 285 285 286 286 286 286 285 284 284 285 286 286 286 286 287 289 293 294 295 296 296 294 295 295 295 294 292 288 289 289 290 292 291 289 288 289 289 289 289 289 287 287 287 287 287 286 286 286 285 285 285 284 284
284 285 286 286 286 286 287 287 286 286 286 286 285 284 284 284 283 283 283 284 284 283 283 283 283 283 284 284 284 284 284 285 284 284 284 284 285 285 285 285 285 285 286 286 286 286 286 286 286 289 293 294 295 297 296 295 295 295 294 291 292 291 290 289 290 290 289 288 288 289 288 289 289 289 287 287 287 287 287 286 285 285 285 285 284 284 285
283 283 283 285 286 286 286 286 286 286 285 284 283 284 285 285 284 284 284 284 284 284 283 283 284 284 284 284 284 283 283 283 283 282 282 283 283 284 284 285 285 285 285 285 286 286 286 286 287 292 296 296 297 297 297 296 295 295 294 293 292 292 290 289 290 291 291 290 290 290 289 288 289 289 287 288 288 287 287 287 286 285 285 285 286 285 284
284 284 285 286 286 285 284 285 287 286 286 286 286 285 284 284 282 284 283 284 283 283 283 283 284 284 284 284 283 282 283 282 281 281 281 282 282 283 284 284 285 285 285 286 286 286 287 288 290 294 297 297 297 297 297 296 294 293 294 293 293 292 292 291 291 293 291 290 290 290 291 288 290 289 288 289 289 288 288 287 287 286 286 285 285 285 284
288 288 289 288 287 288 288 287 286 286 285 284 284 284 285 284 284 284 284 283 282 282 283 284 284 284 284 283 282 282 282 281 281 281 282 282 282 283 283 284 284 285 285 285 285 286 290 290 293 295 296 296 296 297 296 295 293 294 293 293 292 292 292 292 293 292 291 291 291 291 289 289 289 288 289 290 289 288 288 287 287 286 285 284 284 284 285
288 287 287 287 288 289 288 287 287 285 284 283 283 284 283 284 284 284 284 284 284 284 284 283 283 283 283 283 281 281 281 281 282 282 282 282 282 283 283 283 283 283 284 284 285 286 289 290 287 288 291 292 292 293 292 292 293 294 293 293 292 292 292 292 291 292 291 291 290 289 288 287 288 288 289 289 289 289 288 287 286 286 286 286 285 285 285
287 287 287 287 288 288 287 286 285 284 284 284 284 284 284 284 283 284 285 285 284 283 283 283 283 283 282 282 282 282 282 282 282 282 282 283 282 282 282 282 282 282 282 281 283 285 287 289 287 288 290 290 290 290 289 289 293 293 293 293 293 292 291 293 292 291 291 289 288 288 287 287 287 287 287 288 287 286 286 286 286 286 286 286 285 284 284
287 286 287 288 288 286 284 285 286 287 287 287 286 285 285 284 284 285 285 284 283 283 283 282 283 283 283 283 282 281 281 282 282 282 282 283 283 282 281 281 281 282 281 281 284 285 286 286 287 288 290 289 289 289 288 288 290 293 293 292 291 291 291 291 292 291 290 289 287 288 287 287 287 287 286 287 287 286 286 286 286 286 285 285 284 284 284
287 287 287 287 287 285 285 285 286 285 285 285 285 285 285 285 285 284 283 283 283 283 282 283 283 282 282 282 282 282 281 281 282 282 282 282 283 281 281 281 282 282 283 285 285 285 285 286 287 288 288 289 289 290 288 287 289 293 293 293 292 291 290 290 290 288 288 288 288 288 288 287 287 286 287 286 286 286 286 286 286 285 284 284 284 283 283
288 288 286 285 284 284 284 283 282 282 283 285 285 284 285 284 284 283 283 283 284 284 284 283 282 282 281 281 281 282 281 282 281 281 281 282 282 281 281 282 283 284 285 285 285 285 285 285 286 286 287 288 289 289 288 288 288 290 291 291 291 291 291 291 290 289 288 288 287 286 287 286 286 286 285 285 285 285 285 285 284 284 283 283 282 283 283
288 287 286 285 284 284 283 282 281 283 283 283 285 285 285 284 284 282 282 283 284 285 285 284 282 282 282 281 281 281 282 282 281 281 281 281 280 280 279 279 282 284 284 285 285 285 285 285 285 286 286 288 288 287 289 288 289 289 290 290 290 290 289 289 288 288 287 287 287 287 286 286 286 286 285 285 284 284 284 284 283 283 283 282 282 282 282
288 288 287 287 285 284 283 283 283 282 282 283 284 285 285 285 284 282 283 283 283 284 284 285 285 283 283 282 282 281 281 282 282 281 281 280 279 279 278 279 282 283 284 284 285 284 285 285 285 285 286 288 288 287 287 288 290 290 289 289 289 289 289 288 287 287 287 287 286 286 285 285 285 284 284 284 283 283 283 283 282 282 282 282 281 281 281
288 287 287 286 285 285 285 284 283 282 282 284 284 285 285 285 285 284 283 283 283 283 283 283 284 284 283 282 281 280 280 280 281 281 280 281 281 281 280 280 281 282 284 284 284 284 284 284 285 285 286 287 287 287 287 289 289 289 289 288 288 288 288 287 287 287 286 285 285 285 284 284 284 283 283 283 283 282 282 282 281 281 281 281 280 280 280
287 287 288 288 287 286 286 285 284 284 282 283 285 285 285 285 285 284 283 283 282 283 282 282 283 283 284 282 281 280 279 279 279 279 280 279 280 281 282 281 281 283 284 283 283 283 283 284 285 285 286 286 287 287 288 289 288 288 287 287 287 286 286 286 286 286 285 285 284 284 284 283 283 283 282 282 282 282 282 283 282 282 282 282 283 282 282
287 287 288 288 287 286 285 285 284 283 283 284 284 284 285 284 284 284 284 283 283 282 282 282 282 282 282 282 281 281 280 280 280 279 279 278 278 278 281 282 282 282 283 283 283 283 283 284 285 285 285 285 286 286 287 287 287 287 287 287 286 286 286 285 285 285 285 284 284 284 283 283 283 283 283 283 283 283 283 283 283 283 283 282 282 282 282
287 287 286 287 287 286 286 287 287 285 284 284 283 283 284 285 284 284 284 283 282 282 282 282 281 282 282 282 283 282 281 281 281 281 280 279 279 279 281 282 282 283 283 283 282 282 283 284 285 285 285 285 285 285 284 284 284 284 284 285 286 286 285 285 285 284 284 284 283 283 283 282 282 283 283 283 283 283 283 283 283 283 283 283 283 282 282
287 288 287 287 287 288 288 287 288 286 285 284 282 282 284 284 285 284 284 285 284 283 283 282 282 282 283 282 281 281 279 279 280 281 281 281 282 282 282 283 283 283 283 282 282 282 283 284 284 284 284 284 284 283 283 283 283 283 283 283 283 283 283 283 283 283 283 283 283 283 284 283 283 283 284 284 283 283 282 282 282 283 284 283 283 283 282
287 286 287 287 287 287 288 288 287 286 284 283 283 284 284 284 284 284 284 285 285 285 283 283 283 283 283 283 282 282 281 281 278 279 281 281 280 280 281 280 282 283 283 283 283 283 284 284 284 284 284 284 283 282 282 282 282 282 282 282 282 282 282 282 282 283 283 283 282 282 282 282 283 283 283 283 282 282 282 281 280 280 282 283 283 282 282
289 288 288 289 288 287 287 287 286 286 285 285 285 283 285 285 285 284 284 285 285 284 283 283 283 282 283 283 283 281 282 282 280 279 280 280 280 280 280 283 283 283 283 282 281 281 283 284 284 284 284 283 282 282 282 282 282 282 282 282 282 282 282 282 282 282 282 283 283 283 282 283 282 282 282 282 282 282 282 280 279 277 277 279 281 282 282
290 289 288 287 287 287 287 286 286 286 287 286 284 284 284 284 281 283 282 281 282 283 282 282 282 283 281 281 281 281 281 281 281 281 281 281 281 280 280 281 282 283 283 281 281 281 282 283 283 283 283 281 281 281 281 281 281 281 281 281 281 281 282 282 282 282 282 283 283 283 283 282 281 282 282 283 283 281 281 279 278 281 283 281 280 279 280
289 288 288 287 287 288 289 289 288 288 287 286 285 284 284 282 281 283 282 281 281 281 280 280 280 280 280 280 281 281 281 282 282 283 280 280 280 282 282 281 281 282 282 281 281 280 280 279 280 281 281 281 280 280 280 281 280 281 281 280 280 280 280 281 281 280 280 281 281 281 281 281 280 280 280 282 282 281 281 281 279 278 278 278 278 278 278
289 289 289 289 289 289 289 289 289 288 286 285 285 284 282 282 283 282 280 283 281 281 280 280 278 279 279 279 280 279 280 280 280 280 281 281 280 279 281 282 281 281 280 280 280 280 280 281 282 283 282 280 280 280 282 282 281 281 280 281 280 279 280 279 280 280 279 279 279 279 280 279 280 280 280 280 280 280 280 280 279 279 279 278 278 278 278
Wind_Speed
5 5 7 7 7 7 6 5 3 5 5 7 4 1 3 1 3 6 2 3 1 1 1 4 3 4 3 6 4 6 11 11 9 8 7 6 7 7 7 7 6 6 5 6 6 6 5 6 7 7 6 6 5 5 4 4 4 5 4 5 4 4 5 5 4 5 4 4 4 4 4 4 4 4 4 4 3 2 1 2 3 3 3 3 3 3 2
4 5 6 6 8 5 5 5 5 4 7 5 5 5 2 1 1 3 3 1 1 1 1 4 4 3 4 4 3 2 1 5 9 7 7 10 9 9 9 9 8 6 6 6 6 8 9 7 6 5 4 5 4 4 3 3 3 2 4 4 4 4 3 2 0 0 3 4 5 4 4 4 5 5 4 4 3 3 4 4 4 3 3 4 4 4 4
3 6 7 7 8 8 6 6 6 5 4 5 3 3 5 5 1 4 7 4 2 2 4 6 6 9 9 11 12 12 7 5 2 4 6 7 9 10 6 9 9 9 7 6 5 6 5 6 5 5 4 5 5 5 5 4 4 4 4 3 3 2 2 1 1 1 2 1 1 0 2 4 4 5 4 4 3 4 3 3 4 4 3 4 4 5 5
2 2 3 5 6 6 5 4 4 4 4 4 4 4 3 5 5 4 8 8 5 3 6 6 8 9 9 7 7 9 11 11 10 9 8 8 6 13 14 9 12 9 9 7 7 6 5 5 4 3 1 4 5 4 3 3 3 2 2 2 2 1 1 2 3 1 1 2 2 1 1 2 3 2 3 3 4 4 3 3 4 3 3 5 5 5 5
2 2 4 6 8 10 9 6 1 2 1 2 1 1 6 4 3 7 5 1 6 2 5 8 6 7 7 8 7 9 9 8 9 10 10 11 7 1 8 11 9 7 7 8 8 8 6 6 6 4 4 5 4 2 2 1 1 1 1 1 1 0 1 2 3 3 3 3 1 1 1 1 2 3 4 4 1 1 3 5 3 3 5 4 6 6 6
2 1 2 4 5 3 3 3 5 3 2 5 6 3 4 6 8 1 2 2 6 8 8 10 7 7 7 9 10 7 6 8 11 10 10 8 9 14 10 7 8 12 8 7 7 7 6 4 4 2 3 4 2 0 1 1 1 1 1 2 2 3 3 2 1 0 1 1 2 1 2 4 4 4 4 3 3 3 4 2 1 2 3 5 5 5 5
1 2 5 5 3 6 2 8 9 6 3 7 8 5 10 9 7 7 10 10 10 8 8 7 6 7 6 11 12 13 11 7 7 10 11 11 6 8 11 11 9 8 7 6 6 7 5 4 4 3 4 1 2 0 2 1 1 2 4 4 2 0 0 0 1 1 0 0 1 0 1 1 2 3 3 3 4 5 4 3 4 5 4 4 2 3 4
1 3 1 1 3 1 4 6 12 8 6 4 7 8 13 13 10 7 7 6 8 10 9 6 6 5 5 10 12 12 13 10 7 8 8 10 9 8 6 8 6 8 7 6 5 5 3 5 5 5 4 3 3 3 2 3 1 3 4 3 3 3 1 0 1 2 2 2 1 0 1 1 0 1 1 2 3 4 2 3 4 4 5 4 5 5 4
3 2 3 7 2 5 10 6 6 5 3 4 2 4 5 9 8 7 4 7 9 9 8 8 7 5 5 9 9 11 10 9 10 9 7 6 6 6 4 3 5 6 4 3 3 4 3 2 2 3 2 4 4 5 5 5 4 4 3 4 4 4 3 2 1 1 2 2 1 0 1 1 1 2 3 4 4 1 2 3 3 4 4 4 4 4 4
4 2 1 2 1 2 1 2 3 5 4 3 3 3 1 8 10 8 7 8 8 8 7 9 8 6 10 9 7 8 8 7 8 8 8 8 6 5 6 9 4 1 5 5 4 5 6 5 2 3 2 3 4 4 4 5 5 5 4 3 2 2 3 3 3 2 2 1 1 1 0 0 1 2 2 1 2 1 1 2 3 4 3 3 5 4 4
4 2 2 2 1 2 0 6 6 7 6 7 5 3 3 6 7 8 7 8 8 6 7 8 8 9 7 3 4 6 7 8 7 7 7 7 7 6 5 7 8 9 5 4 3 4 4 1 2 2 0 1 1 0 2 4 4 3 4 5 5 5 4 3 4 3 3 3 3 3 4 3 2 3 3 3 2 1 1 0 2 2 4 6 5 5 5
2 2 3 3 0 1 5 7 7 9 6 6 4 0 0 6 8 6 7 6 6 5 6 5 7 7 5 4 5 5 7 6 6 8 6 5 6 7 5 5 5 4 4 6 5 3 1 1 2 1 1 1 1 3 4 4 4 5 5 5 5 4 4 4 2 2 3 4 4 5 5 4 4 4 4 1 1 1 2 2 1 4 5 6 6 5 4
2 5 3 2 1 2 3 5 8 7 8 3 1 2 2 6 6 5 6 6 6 5 5 5 5 2 2 1 4 6 8 9 9 7 7 6 6 5 5 4 5 4 4 2 3 4 2 2 2 3 3 2 3 4 4 3 4 5 5 4 3 4 4 4 4 5 4 3 3 4 3 3 2 2 1 2 2 1 1 2 5 5 6 5 7 5 5
1 1 3 1 2 3 4 7 4 5 3 2 2 1 4 3 3 5 4 5 5 6 5 4 3 4 5 5 5 6 7 6 5 5 5 6 7 6 6 6 6 5 5 6 6 6 4 1 1 1 2 3 5 5 4 5 5 5 4 5 5 5 5 5 5 4 2 3 2 3 3 2 3 4 4 2 2 2 1 3 6 6 5 6 6 6 5
2 1 1 1 1 1 5 6 4 4 5 1 2 3 3 3 4 5 6 5 8 7 6 7 7 7 7 5 5 5 5 6 6 6 6 7 6 6 6 6 4 2 4 6 5 5 4 4 4 4 3 4 4 4 5 7 6 5 5 3 3 3 4 4 5 5 5 5 4 4 5 5 4 5 5 5 5 4 3 4 7 7 6 6 6 6 5
2 3 3 2 2 2 5 3 3 0 4 4 2 0 3 3 5 6 5 5 5 6 6 7 6 5 5 6 6 6 6 6 7 7 7 6 6 6 6 5 6 5 6 6 7 5 5 6 6 5 5 5 5 5 5 6 4 3 3 3 1 2 3 4 5 5 4 4 3 2 3 2 1 3 3 4 4 5 6 6 8 7 6 6 6 6 6
3 1 2 3 2 5 1 0 2 1 3 2 3 6 5 4 5 4 5 5 6 5 6 5 6 6 5 5 5 5 5 6 6 6 7 8 8 7 7 8 7 5 4 5 6 6 5 5 6 4 1 1 2 3 4 3 2 2 2 2 2 3 4 3 2 2 3 3 3 3 3 1 2 3 5 3 3 4 4 5 7 8 7 7 7 6 6
2 2 5 9 8 4 5 4 3 5 6 8 8 7 6 5 4 4 4 5 6 7 6 7 5 5 6 7 7 7 7 7 7 7 7 7 7 8 8 7 7 7 8 7 7 8 8 4 3 3 2 2 1 1 2 3 3 3 4 5 4 2 1 2 3 4 5 5 4 4 4 4 4 4 4 4 4 1 3 6 6 8 7 7 7 7 6
4 1 8 11 7 3 3 4 6 7 9 8 8 6 4 4 6 7 6 5 6 6 5 5 5 6 6 7 7 6 6 7 7 7 7 7 7 7 8 9 9 9 7 7 6 6 5 3 3 3 2 1 0 1 2 3 4 4 3 1 2 2 3 2 2 3 3 4 4 4 4 3 3 2 1 4 3 3 4 6 6 6 7 8 7 7 7
3 1 5 6 4 4 4 7 7 7 7 9 6 4 4 4 4 4 5 6 6 5 6 5 6 7 6 6 7 6 7 7 7 8 7 6 7 9 8 8 8 8 9 9 5 1 1 2 2 3 3 3 3 3 3 3 4 1 2 2 2 2 3 4 4 3 4 4 4 3 1 2 2 2 3 1 5 6 7 7 7 7 7 7 8 8 8
3 4 8 10 7 5 10 10 8 7 7 6 6 6 7 7 6 6 5 4 5 5 6 5 5 6 6 6 6 8 7 7 7 7 8 8 7 6 7 8 8 8 6 7 7 5 4 2 1 2 4 4 4 5 4 2 3 4 4 4 4 4 4 4 4 3 3 3 3 3 1 4 4 2 1 2 4 3 1 4 9 10 8 7 7 7 9
3 3 4 7 5 6 9 6 7 8 8 6 7 7 6 6 6 5 5 5 5 5 4 4 5 7 8 8 7 9 8 8 9 8 8 7 8 9 8 7 8 9 9 7 5 4 5 6 6 5 4 4 2 2 4 4 5 5 4 4 4 3 3 3 3 4 5 4 3 2 2 4 5 4 7 10 5 2 3 5 8 6 9 7 8 8 7
1 3 5 4 1 3 4 5 6 6 4 5 5 5 5 5 4 5 5 5 5 5 5 4 5 5 7 8 8 9 8 8 6 6 6 7 6 7 7 9 10 10 11 11 4 3 4 4 4 4 3 3 2 2 4 5 5 4 3 3 2 3 3 4 4 6 6 5 5 3 4 6 5 6 5 8 13 12 5 9 12 12 11 13 13 11 10
1 3 3 3 3 3 4 4 4 5 4 4 4 4 4 5 5 6 6 6 6 6 5 4 4 6 6 6 6 8 8 7 7 8 7 6 6 7 7 7 7 8 7 4 4 4 2 2 3 3 1 2 1 4 5 4 5 4 4 3 1 2 2 3 5 5 5 5 5 5 5 6 6 7 7 7 7 12 12 11 15 16 15 16 16 16 16
2 2 1 1 3 4 4 3 4 3 4 5 5 4 4 6 6 6 6 6 5 5 5 6 6 5 5 6 7 7 7 7 6 7 7 6 6 7 6 4 5 5 4 5 5 4 0 2 2 1 2 3 2 4 4 4 5 4 3 3 1 1 2 3 4 5 6 6 7 6 6 6 5 6 8 9 10 7 9 13 14 14 15 16 16 16 15
1 3 3 3 3 3 4 5 4 5 7 6 5 5 6 6 7 7 7 8 7 7 8 7 7 7 8 8 7 7 8 9 9 10 8 6 5 4 3 4 6 5 5 4 4 3 2 2 1 1 4 2 4 4 5 4 4 4 4 3 2 1 1 2 3 3 2 1 2 4 5 6 6 6 6 7 9 10 10 8 10 11 11 12 14 14 12
4 4 4 3 2 3 3 3 5 5 4 4 5 5 4 5 7 5 6 6 8 8 7 8 9 10 10 9 10 10 9 10 10 9 8 8 8 6 4 4 5 6 7 6 4 4 3 3 4 0 4 3 4 5 4 5 4 4 3 3 2 3 6 4 4 4 3 4 5 6 7 8 8 8 8 8 8 9 9 9 8 8 7 5 7 9 8
4 4 3 1 3 3 3 4 3 4 4 5 5 6 7 7 6 7 7 9 9 9 8 9 10 11 10 9 10 10 10 11 11 10 10 9 8 8 7 5 5 5 6 7 6 6 5 2 2 1 4 4 5 5 5 5 4 4 4 4 3 3 4 5 5 4 5 5 6 6 7 8 8 8 8 8 8 7 8 8 8 7 5 4 3 4 5
4 4 3 3 2 3 2 3 4 4 4 6 6 6 7 7 6 7 8 8 8 8 8 9 8 8 8 9 8 10 10 10 11 12 11 10 9 8 8 7 6 6 6 6 6 6 6 5 3 2 4 4 5 6 5 5 4 4 4 4 4 4 3 3 4 5 6 6 7 7 6 6 7 7 6 7 8 8 8 8 7 6 6 5 4 4 3
3 3 3 4 3 4 5 4 3 4 5 6 7 5 4 6 7 7 7 7 7 8 8 9 9 9 9 9 9 9 10 11 10 9 8 7 7 8 8 8 8 7 5 5 4 4 6 6 5 3 5 4 6 6 5 4 5 4 3 4 6 5 3 3 3 3 5 6 6 6 5 4 4 5 6 6 8 8 7 6 6 6 6 4 4 6 6
3 3 5 4 5 4 3 4 3 4 5 6 5 4 6 6 6 6 7 7 7 8 9 9 8 9 9 9 8 8 9 8 8 7 7 7 7 6 6 7 7 6 5 6 7 7 7 6 6 4 5 5 7 6 6 5 5 5 4 3 4 4 6 5 3 2 4 4 4 3 2 2 3 5 4 5 5 5 6 5 5 5 4 4 3 4 3
3 4 5 3 3 3 4 4 4 2 5 5 4 6 6 7 7 8 7 7 7 7 8 9 10 10 9 8 8 9 8 7 6 7 7 7 7 5 6 5 6 5 6 7 7 8 7 6 7 7 4 8 7 7 6 6 6 4 2 3 4 3 4 4 1 2 4 2 1 1 1 1 2 2 3 3 3 4 5 5 6 5 5 5 3 3 1
2 3 3 3 3 3 3 3 2 3 5 4 4 4 4 3 3 4 4 4 5 6 6 6 7 7 8 7 8 8 7 5 4 6 7 7 7 7 5 4 4 5 6 6 8 8 7 8 8 6 5 8 7 6 6 5 5 3 2 3 4 4 2 2 5 5 4 1 1 2 1 1 2 4 3 5 7 7 6 6 6 6 5 4 4 2 1
1 2 0 2 2 2 3 2 1 4 3 4 4 4 3 3 3 3 3 3 3 4 5 7 7 6 6 7 7 7 7 6 6 7 8 8 8 8 7 6 6 6 6 6 7 7 7 8 8 6 8 8 7 7 6 5 3 2 3 4 4 2 2 5 7 5 5 3 2 1 5 5 6 6 6 7 6 8 8 6 6 6 5 4 3 2 2
1 2 4 2 2 1 1 2 5 4 3 3 2 2 1 1 2 2 2 2 2 3 5 6 6 4 3 5 7 8 7 8 8 8 8 9 9 9 8 7 7 5 5 5 7 4 5 7 6 5 9 8 8 7 6 3 2 4 5 5 3 3 3 5 5 5 6 5 4 7 6 6 5 6 7 8 7 7 7 7 7 6 5 5 3 3 3
3 3 2 3 0 1 4 3 3 4 3 2 0 0 1 2 2 3 4 4 4 4 4 6 6 4 1 3 7 9 10 9 9 8 9 10 9 7 7 8 9 10 9 12 13 10 7 8 12 13 9 9 8 6 4 3 4 5 5 4 3 6 6 5 5 5 5 6 7 7 6 5 6 7 7 7 7 6 7 6 6 5 5 5 6 6 7
3 2 2 2 3 4 3 3 2 2 3 3 3 2 3 3 3 4 4 5 4 4 5 6 6 5 2 2 3 5 8 7 7 7 7 7 7 8 9 11 13 11 11 13 12 8 8 11 15 16 11 7 7 5 3 5 5 5 5 4 5 6 6 6 5 6 6 4 6 6 6 6 6 6 6 6 5 5 6 6 6 7 8 7 6 6 6
2 2 1 3 3 4 3 2 3 1 3 3 3 3 4 3 4 5 6 5 4 4 5 4 5 4 4 2 2 6 8 9 9 9 8 8 8 9 11 12 10 10 12 11 8 8 9 11 14 9 8 6 5 4 5 9 8 6 5 5 6 6 5 5 5 6 6 6 6 6 6 6 5 5 5 6 6 7 7 7 7 8 7 7 6 6 6
2 2 2 4 4 3 1 0 1 3 4 4 4 4 5 6 5 2 3 4 3 4 3 4 4 4 5 6 3 4 6 8 9 9 8 8 7 9 9 10 10 10 8 8 8 8 8 9 7 8 8 7 7 7 8 10 10 6 6 7 7 7 8 7 6 6 6 6 6 6 6 6 6 7 6 6 6 7 7 8 8 7 7 6 6 7 7
4 3 3 3 2 2 2 2 3 4 5 4 0 1 1 1 1 2 3 4 5 5 4 3 4 5 6 6 6 5 6 7 7 7 8 7 7 8 8 11 13 11 11 12 10 9 10 11 9 8 8 8 8 7 8 10 9 7 7 7 7 6 7 6 6 6 6 6 7 7 7 7 7 7 7 7 8 8 8 8 9 8 7 7 7 7 7
4 4 4 3 4 4 3 3 3 4 4 3 0 1 1 1 2 3 4 4 4 5 6 3 3 5 5 6 6 4 4 6 8 8 7 7 9 9 10 10 10 10 11 10 9 8 10 8 8 8 8 8 8 8 8 10 8 7 7 7 7 7 6 6 6 6 5 6 6 7 7 6 7 8 7 8 8 7 7 8 8 7 7 7 6 6 6
5 5 5 4 3 3 4 4 3 2 3 2 1 1 1 2 2 3 3 3 4 4 4 6 4 3 5 5 5 7 6 4 6 9 11 10 9 8 9 8 8 8 11 9 8 8 8 8 8 7 7 7 8 12 12 8 8 8 8 7 7 7 7 7 7 7 7 7 7 6 7 7 7 8 8 8 8 7 7 7 7 7 6 6 6 6 6
5 5 4 4 3 3 4 4 4 4 2 1 3 1 1 2 2 2 2 2 3 3 5 5 6 4 4 5 6 7 7 6 5 5 6 8 8 7 6 5 6 7 10 6 7 6 7 6 6 6 7 7 7 10 11 8 8 9 8 8 8 7 7 7 7 7 8 8 8 8 8 7 7 7 7 7 7 7 7 7 7 6 6 6 5 6 6
4 4 4 5 5 5 5 4 5 4 3 1 1 1 1 1 1 1 2 1 2 3 4 4 4 5 3 4 5 6 6 5 5 4 5 5 6 8 6 5 5 7 11 7 6 7 7 7 6 5 3 6 11 11 8 8 8 8 8 8 8 8 8 8 8 8 8 7 7 7 7 7 7 7 7 7 6 6 6 6 6 6 6 6 6 5 5
4 4 4 5 4 4 4 4 3 4 4 3 2 1 1 2 2 1 1 2 2 3 3 4 4 4 4 4 5 5 5 5 5 4 5 6 8 7 6 5 6 6 9 10 7 8 7 8 12 14 10 10 10 9 7 7 7 7 8 8 8 8 8 8 8 7 7 8 7 7 7 6 6 6 6 6 6 5 5 5 6 5 5 4 4 5 5
5 5 5 5 4 3 4 4 2 3 4 4 4 3 2 2 3 3 1 2 3 3 3 3 4 4 4 4 5 5 5 5 4 4 5 5 5 2 2 5 6 7 11 10 7 8 8 13 16 16 17 15 13 10 8 8 8 8 8 7 7 7 7 7 8 8 8 7 7 6 6 6 5 5 5 5 4 5 5 5 4 4 5 5 5 5 4
4 5 4 4 2 2 4 3 3 3 4 4 4 4 4 3 3 4 2 2 4 4 4 4 4 4 4 5 4 5 5 4 3 3 4 4 4 3 2 4 5 8 8 7 7 8 8 10 11 14 15 14 12 8 8 8 8 8 8 8 8 7 6 6 7 7 6 6 7 7 6 5 5 5 4 4 5 5 5 4 4 4 4 5 4 4 4
4 4 3 3 3 3 4 5 3 4 4 5 3 7 6 4 4 4 3 4 4 4 5 4 4 4 4 5 5 5 5 6 5 2 2 3 3 3 4 2 0 4 7 8 9 9 14 14 14 13 12 11 9 7 8 7 7 7 7 7 7 7 7 6 6 6 6 6 6 5 4 3 4 5 4 5 4 4 4 4 3 3 4 4 4 4 4
6 5 4 3 3 4 5 5 5 5 6 5 2 6 6 6 5 5 4 4 3 5 5 5 4 4 4 5 5 6 5 3 4 3 3 3 2 3 2 4 3 1 3 6 6 6 8 12 12 12 10 8 7 7 7 6 6 6 6 6 6 6 7 7 6 5 6 6 5 6 6 6 5 4 4 3 3 3 3 3 3 3 3 3 5 4 5
5 5 6 7 7 6 5 6 6 7 6 5 4 6 6 6 5 5 4 3 4 6 5 7 6 6 5 4 4 4 5 5 4 4 4 4 3 2 3 4 3 5 6 6 5 6 7 8 8 9 8 6 6 6 6 6 6 7 7 7 7 6 7 7 7 8 5 5 5 4 3 2 3 3 2 2 1 1 1 2 3 6 8 6 6 6 6
7 7 7 7 7 7 7 7 6 7 5 2 3 3 7 7 6 6 7 6 4 3 5 5 6 7 6 5 5 4 4 4 5 5 4 3 2 3 4 5 5 5 5 6 5 6 6 5 4 4 5 5 6 5 4 5 6 6 6 5 5 5 5 6 5 6 6 6 5 5 5 6 4 2 1 1 3 5 6 7 6 6 6 7 7 7 6
7 7 7 7 7 7 8 7 6 4 1 2 3 4 4 6 4 7 6 7 3 3 7 7 6 5 7 6 5 4 4 4 4 4 4 3 3 5 4 6 7 7 6 5 5 5 5 6 6 6 6 6 6 6 6 6 5 5 5 5 5 5 5 5 5 5 5 5 5 5 6 6 6 7 6 6 5 6 7 7 7 7 7 6 6 6 6
Wind_Direction
290 288 289 293 290 291 300 292 299 299 327 348 330 219 233 87 150 198 257 329 359 247 100 94 102 112 107 102 141 175 159 157 159 167 158 166 150 146 131 124 116 101 85 71 54 46 63 89 88 84 79 75 74 76 77 71 57 48 47 61 62 75 99 121 155 183 183 175 180 175 180 179 182 204 220 235 233 231 210 222 212 205 177 175 192 214 198
354 342 347 344 328 320 319 316 328 347 55 18 2 334 330 106 240 227 203 124 93 252 63 82 93 98 68 25 37 109 154 159 153 178 178 180 176 158 144 137 130 121 104 81 74 57 45 43 46 52 64 64 63 68 60 61 56 28 52 45 58 43 71 140 124 54 140 168 185 175 175 187 198 200 218 219 224 241 243 229 218 201 186 187 195 207 209
345 349 329 325 315 316 307 325 334 4 9 355 358 3 335 16 18 63 70 60 354 275 61 32 29 45 46 44 49 23 18 331 329 220 211 189 171 124 142 154 141 134 122 109 91 85 76 67 66 60 66 73 61 44 35 48 55 35 56 46 30 49 22 18 48 359 345 336 44 110 183 185 198 213 215 204 215 242 245 239 235 229 204 208 210 208 207
315 292 323 321 6 358 356 341 330 342 16 3 332 25 318 55 337 360 42 24 314 306 43 62 63 61 50 49 31 40 25 16 34 38 8 305 223 155 167 150 144 140 136 135 117 109 113 113 105 99 47 88 84 64 22 42 41 31 28 34 17 349 354 358 5 12 62 50 14 16 59 45 65 111 158 191 235 251 236 209 224 205 214 222 216 209 206
239 291 336 354 10 11 360 331 282 73 22 100 77 34 55 73 111 63 52 311 277 335 31 53 40 55 52 38 32 38 38 35 33 27 11 6 346 32 148 149 132 113 121 118 105 82 60 58 54 25 51 81 97 135 155 234 201 219 252 243 249 8 324 343 329 10 35 42 7 26 27 38 32 18 13 16 58 153 205 242 237 200 219 217 224 213 204
193 184 360 20 21 322 240 255 349 296 152 97 70 24 23 45 75 155 158 41 8 10 24 47 36 50 71 60 46 59 63 49 32 21 25 10 55 60 54 73 95 102 99 93 95 101 107 103 67 58 108 127 130 175 221 234 118 319 355 294 244 245 252 245 260 358 12 343 332 352 34 38 36 23 19 357 342 343 352 20 126 189 216 227 245 240 219
213 42 40 27 279 232 237 33 12 10 47 86 110 81 36 23 22 49 47 34 34 22 50 53 41 39 34 60 50 38 32 44 45 43 34 35 31 74 73 68 73 79 93 100 94 81 79 73 61 16 341 179 173 276 296 14 28 18 313 318 345 338 278 289 46 347 312 208 226 144 79 41 17 359 346 323 323 310 313 298 306 307 315 317 286 258 253
41 69 112 148 228 247 52 57 27 351 36 21 65 42 28 28 33 60 58 43 42 40 27 30 34 25 45 57 43 35 34 27 36 45 51 46 44 45 64 85 65 60 55 63 77 97 77 49 49 56 22 21 46 20 21 13 323 285 285 323 334 333 327 271 263 280 277 288 287 70 92 90 83 312 309 273 269 283 302 309 314 321 309 313 299 300 285
149 168 161 214 322 349 7 4 15 19 31 356 88 101 21 360 18 33 49 39 35 36 27 15 5 354 48 52 27 22 25 19 18 30 29 60 62 49 48 105 129 122 110 69 127 103 81 79 63 68 16 23 33 29 10 347 350 331 340 320 303 308 310 308 315 325 15 29 5 297 186 179 208 225 245 281 292 288 319 313 308 306 270 287 352 9 354
123 150 283 338 11 255 292 249 358 2 5 20 346 100 50 355 354 5 29 28 19 25 22 15 359 19 57 41 12 1 4 14 12 18 30 17 19 48 52 26 18 82 115 113 268 92 73 36 342 332 349 92 60 18 350 334 330 314 323 311 291 313 320 340 2 10 21 52 31 57 69 184 228 247 252 269 264 255 254 289 309 273 298 51 42 31 46
109 136 157 206 190 228 297 334 350 337 342 358 324 74 39 324 337 356 30 28 19 24 26 7 16 45 60 35 336 337 357 355 7 33 18 19 17 14 58 54 27 22 15 89 133 107 87 64 296 295 275 67 50 17 295 294 305 313 308 308 313 310 301 304 323 339 357 360 341 332 322 288 250 255 251 238 235 216 255 249 267 3 56 85 61 44 43
159 152 161 233 76 120 348 320 337 335 324 7 64 202 102 328 324 347 16 20 17 17 16 27 35 67 50 356 312 325 351 359 14 16 1 16 8 358 14 45 27 26 11 6 14 44 78 287 292 352 350 337 226 219 244 248 274 280 278 274 261 265 285 301 303 313 319 312 290 284 276 279 285 261 243 210 219 216 255 241 34 79 78 81 81 58 50
207 184 231 121 67 360 330 316 313 349 327 20 90 187 303 298 306 349 9 16 10 18 20 35 28 356 53 340 355 1 355 357 353 353 353 352 1 339 343 351 12 2 345 26 358 323 289 251 263 292 302 289 258 238 231 233 245 243 244 257 286 297 296 299 302 298 294 275 276 287 263 254 264 282 271 232 247 184 217 65 85 87 81 83 82 70 63
52 70 87 132 126 243 266 288 331 342 12 50 82 228 224 266 318 355 344 1 354 17 11 15 19 332 343 357 6 0 339 332 325 333 338 339 337 334 341 354 359 345 333 322 311 297 294 316 316 316 326 299 278 261 237 225 233 232 244 266 280 291 299 297 291 282 274 287 281 268 266 291 315 305 277 221 168 173 155 99 102 100 101 91 87 78 66
48 66 85 22 5 232 177 287 349 25 90 219 197 232 296 314 341 349 348 24 22 22 10 0 355 348 344 350 345 336 324 327 325 323 325 320 312 312 312 303 291 302 306 301 281 257 245 249 266 258 232 237 237 240 245 248 245 254 269 270 264 268 275 285 284 282 281 277 269 266 267 268 269 278 285 275 253 232 189 125 117 119 119 114 106 100 88
87 20 46 105 200 348 11 38 97 287 171 196 199 131 292 349 12 25 9 15 15 9 10 353 344 338 342 340 342 343 333 324 318 317 313 310 311 311 298 289 284 278 272 272 287 284 275 274 261 250 244 256 267 267 247 242 237 229 226 239 256 302 293 281 274 276 277 276 281 290 276 273 244 248 273 276 276 245 198 145 130 130 135 128 118 120 119
98 90 176 226 32 103 148 130 261 49 6 23 29 32 21 41 9 14 25 353 355 2 355 349 339 331 325 315 317 319 305 308 306 306 307 305 301 295 295 296 294 281 258 267 275 288 288 268 262 262 259 262 301 307 285 308 325 313 296 294 298 289 284 281 298 297 316 320 309 313 305 339 329 317 315 313 296 271 217 135 139 141 149 140 137 139 131
61 82 80 59 44 32 6 11 40 37 17 27 38 35 15 4 11 26 9 350 352 345 343 339 319 311 309 318 318 318 314 310 303 302 304 305 302 301 300 297 293 285 287 284 275 271 272 254 218 199 184 145 106 252 282 319 311 313 308 304 305 292 291 296 293 296 297 292 293 287 287 277 263 253 256 264 236 179 132 137 140 138 144 139 140 142 143
58 294 40 38 12 350 356 360 11 31 41 27 21 9 12 358 1 353 347 360 350 341 347 340 336 330 334 329 320 320 322 319 318 317 316 317 321 318 316 315 322 314 299 285 275 278 292 316 350 21 34 2 215 240 285 279 287 291 314 10 6 323 296 295 320 341 331 312 314 326 319 328 335 320 193 141 123 124 126 134 138 141 142 144 142 144 150
79 268 61 16 1 346 15 42 26 17 9 1 357 351 347 347 0 11 356 1 354 357 341 334 332 319 319 315 309 309 305 303 302 302 302 303 309 308 306 309 313 321 318 302 299 357 346 309 335 320 325 309 298 306 290 289 291 345 79 72 45 348 322 317 307 292 286 283 289 288 11 45 28 3 351 130 148 165 159 154 152 160 156 157 155 151 146
298 356 25 17 14 19 14 2 10 358 351 337 339 352 7 6 5 1 355 355 328 334 313 325 315 315 312 311 307 304 302 301 302 303 302 302 299 301 309 312 315 308 314 312 302 292 277 251 275 283 290 297 293 295 310 342 74 79 55 37 27 14 355 359 331 326 328 331 334 305 97 78 82 59 341 304 150 130 271 206 170 167 169 152 149 154 150
16 27 356 30 25 324 336 344 340 337 336 3 12 12 10 0 349 336 330 315 303 298 303 310 315 310 305 304 302 298 297 292 290 288 289 294 302 305 305 304 307 309 303 298 302 324 327 334 337 325 309 302 317 68 64 61 70 68 59 44 34 360 358 348 334 340 336 330 333 8 131 144 118 71 42 44 13 150 126 104 112 124 136 157 158 142 125
278 350 12 21 338 261 265 312 335 345 13 30 15 355 334 324 318 313 316 315 321 320 310 307 311 316 328 325 327 318 311 306 304 309 314 320 320 314 320 321 315 311 303 293 296 344 320 317 312 332 16 55 41 32 73 75 80 83 77 67 34 355 344 322 307 300 294 283 278 249 162 152 141 119 88 34 31 26 86 114 111 105 101 106 108 112 119
76 46 332 322 325 314 313 340 357 339 354 14 350 329 324 322 334 356 355 337 334 323 321 333 358 339 324 319 322 312 313 317 325 320 317 314 309 304 300 291 295 305 310 324 321 287 286 21 16 21 14 4 8 71 75 75 79 79 76 81 63 333 307 293 289 282 268 260 251 231 188 164 153 140 119 100 54 32 37 87 98 103 108 108 109 109 112
280 277 279 331 359 331 316 324 323 330 352 352 334 323 345 1 11 358 340 329 325 334 358 344 330 321 324 325 317 311 312 312 306 305 303 294 297 299 288 301 303 291 286 285 284 285 351 74 80 133 228 214 147 100 102 98 98 98 106 103 84 332 314 298 290 274 264 257 242 211 173 148 145 144 136 130 116 93 45 52 68 84 99 106 112 118 117
323 32 35 19 353 326 340 356 346 353 339 334 346 16 9 19 5 0 348 344 353 6 353 337 332 342 346 327 315 318 322 320 324 322 316 319 324 322 331 322 301 298 297 298 311 319 355 28 56 96 167 173 112 109 100 99 98 111 102 100 109 65 316 321 358 359 0 24 104 112 112 115 115 107 98 109 119 119 114 103 78 60 57 85 106 104 107
44 47 32 18 358 321 1 351 302 308 323 7 31 12 12 25 12 359 351 356 355 347 344 342 348 342 334 330 332 333 328 331 329 326 326 323 317 308 308 312 321 322 320 317 315 318 348 355 353 82 157 153 137 126 117 113 115 111 127 137 111 74 62 51 48 34 34 48 78 94 103 109 110 108 106 104 105 107 113 112 108 109 114 63 62 102 124
28 13 44 17 294 301 305 311 316 350 16 44 26 20 17 15 4 3 358 356 350 351 352 355 349 344 338 337 338 327 327 323 319 314 309 304 303 307 310 323 331 331 329 323 315 312 305 269 257 200 178 165 136 126 124 127 117 112 104 104 97 74 62 62 55 55 58 66 73 87 99 100 104 109 115 118 113 114 110 107 110 113 96 91 101 63 108
7 344 340 315 296 309 334 20 7 4 37 38 31 31 18 4 6 3 1 0 1 354 353 350 349 341 335 331 329 325 322 317 312 309 302 300 307 315 321 327 329 329 321 313 308 305 308 301 273 144 181 152 132 130 135 130 134 136 136 128 96 83 78 81 82 82 79 78 83 94 103 113 118 119 119 119 122 122 121 122 124 120 121 127 112 103 75
337 330 337 326 328 21 33 9 358 22 43 46 31 12 12 1 6 7 2 6 4 360 354 349 345 343 337 332 332 328 322 313 304 300 306 316 318 320 328 329 322 307 297 292 298 325 330 325 306 192 186 161 140 137 134 128 132 140 119 93 105 116 128 137 133 102 88 104 116 118 125 127 114 113 120 130 138 137 131 129 128 131 139 148 142 148 158
339 329 336 356 23 39 34 16 10 34 56 50 23 6 14 20 19 10 5 2 9 1 350 348 343 341 340 338 333 326 316 309 311 325 325 319 315 318 315 299 291 285 284 286 292 295 294 286 294 280 190 156 142 137 129 130 126 110 88 84 88 120 144 157 152 104 125 134 147 148 154 131 132 137 152 146 128 108 105 109 113 116 119 123 132 152 205
356 352 343 18 21 15 31 25 350 32 65 60 33 27 29 18 14 11 5 7 11 356 346 346 347 345 344 339 334 332 334 330 339 343 336 329 322 312 299 287 278 270 273 268 265 262 261 271 271 267 205 151 143 131 132 126 116 101 99 118 122 113 104 85 21 81 125 134 121 138 195 222 241 158 148 143 132 120 124 115 110 118 123 128 138 164 183
19 344 346 6 5 25 34 25 343 43 62 54 49 39 24 30 26 20 6 356 5 349 338 328 327 328 332 338 340 342 340 337 348 352 346 339 332 324 317 298 286 277 275 263 257 248 235 240 247 259 188 141 134 127 126 116 103 97 88 100 101 113 92 103 130 118 112 90 331 295 265 236 145 110 118 126 123 123 118 116 120 118 127 137 150 164 72
10 290 174 72 4 39 21 339 6 79 88 84 59 40 14 19 16 5 348 341 340 321 316 312 308 320 339 351 342 340 348 359 13 3 354 344 342 337 338 338 327 306 286 286 272 239 216 227 235 244 155 127 124 113 106 94 90 98 113 111 105 98 25 84 104 103 116 127 214 109 84 75 76 91 91 86 102 118 123 121 114 117 114 109 93 78 137
40 51 101 101 52 48 143 64 67 63 53 54 44 42 14 340 346 336 312 308 301 287 286 291 297 310 330 349 357 350 3 15 7 3 358 355 349 346 339 345 343 339 341 3 5 351 189 206 225 162 116 107 98 88 83 75 86 117 125 122 119 86 84 87 81 103 116 135 102 71 67 65 65 73 78 84 87 101 110 116 128 140 147 150 167 148 91
69 54 67 89 89 92 88 88 94 90 92 108 150 200 276 275 286 295 297 287 274 280 287 292 297 297 284 2 16 14 8 11 9 2 2 360 352 343 354 7 12 14 20 27 19 5 33 78 82 81 80 76 72 61 51 72 113 113 116 105 89 80 84 105 108 104 95 91 85 87 84 86 77 70 81 90 93 104 118 129 141 146 136 124 104 76 75
58 69 96 98 104 103 88 64 75 133 145 167 188 223 254 267 270 270 267 266 275 286 294 303 314 327 346 126 46 39 24 14 5 1 358 359 355 4 13 23 23 15 19 27 360 349 31 50 58 62 63 66 63 58 41 91 109 108 105 87 65 70 86 93 89 96 90 85 92 97 92 78 70 68 69 83 97 102 104 109 101 85 78 83 80 73 65
122 151 163 137 97 80 68 23 332 317 182 189 193 213 221 243 256 259 262 259 256 266 284 303 325 319 327 165 129 44 38 22 10 2 360 5 2 11 25 26 16 14 22 6 343 9 32 36 47 58 58 60 58 59 64 90 98 90 83 79 85 83 78 76 70 67 72 72 76 79 79 78 81 74 66 62 64 70 72 73 74 80 83 79 79 77 77
141 150 118 104 98 96 105 212 289 306 313 294 253 214 224 229 245 267 312 315 280 258 282 338 353 10 10 19 55 66 45 41 17 4 3 7 3 26 33 25 22 20 13 357 12 27 25 32 44 49 50 48 48 46 49 51 62 72 78 80 83 93 90 88 85 83 77 76 72 74 74 77 81 85 82 72 60 60 64 70 81 88 84 82 75 72 68
165 138 125 103 106 171 180 206 244 256 258 261 253 159 337 339 325 352 343 351 346 343 328 354 21 23 20 21 25 66 58 53 38 17 9 5 18 25 30 28 18 11 8 14 22 24 23 30 43 50 45 41 44 46 44 48 54 65 71 76 80 84 91 96 93 85 79 77 72 65 63 63 66 66 64 61 60 58 60 61 61 63 67 64 63 62 65
159 150 147 152 200 211 196 205 238 241 248 268 342 88 67 4 7 37 27 9 344 344 337 350 49 38 41 33 27 42 87 63 47 34 23 24 30 28 33 28 3 4 8 13 13 14 22 33 38 48 44 40 46 45 47 44 53 55 62 64 71 76 84 86 91 91 90 81 80 80 75 67 64 62 58 58 58 58 58 59 60 58 58 62 61 61 60
170 165 165 163 187 212 212 207 220 244 274 242 152 116 74 40 73 67 43 26 349 343 344 356 25 80 67 56 47 33 34 56 62 46 37 36 28 25 29 18 353 356 354 2 7 17 22 27 36 46 51 56 55 46 45 45 53 56 58 51 54 61 69 69 69 63 61 61 60 61 62 65 66 64 60 59 56 56 57 57 56 57 56 60 62 62 61
165 168 165 164 196 229 239 227 199 201 223 133 120 105 92 65 43 79 75 36 10 359 3 4 11 40 73 64 57 46 35 29 48 60 59 51 43 36 35 2 341 353 356 12 16 27 29 28 33 35 55 69 66 68 68 63 53 48 46 45 41 49 59 63 65 67 66 68 64 62 60 61 62 65 65 63 61 57 56 56 56 55 56 56 59 63 64
177 177 182 176 193 223 234 223 213 206 154 152 144 166 147 142 126 93 107 70 42 28 23 9 11 16 67 81 73 60 44 38 43 32 47 44 47 37 20 13 358 360 12 19 20 28 28 30 41 65 65 66 67 66 66 68 70 69 64 59 52 47 49 53 57 63 67 67 67 67 66 66 66 65 64 62 60 59 61 59 60 54 50 46 47 50 56
186 198 199 193 200 209 248 261 189 166 169 168 151 153 171 172 162 112 115 120 78 46 34 21 17 22 43 85 87 101 100 76 67 56 59 46 51 31 354 6 11 19 18 22 24 25 26 28 41 48 58 64 62 52 46 46 52 58 69 71 65 61 60 60 57 59 66 72 72 71 70 73 75 73 72 68 68 71 74 78 78 74 72 63 55 59 61
190 210 214 200 190 203 244 272 281 176 164 171 171 179 243 210 167 153 140 127 129 119 93 67 45 40 43 83 120 108 103 97 85 83 93 98 101 119 345 24 23 27 25 26 28 27 27 32 41 45 44 43 46 53 55 53 51 47 45 49 63 70 71 69 68 70 70 72 70 67 68 70 70 79 87 100 99 93 87 90 94 93 88 79 69 69 67
198 202 206 191 199 223 268 256 274 252 215 203 181 181 224 197 163 152 174 166 144 134 112 95 76 57 66 65 78 116 118 98 86 84 101 117 128 132 86 47 34 35 31 32 30 32 32 35 42 48 49 46 46 50 52 53 51 50 49 49 46 46 52 59 67 71 72 73 75 82 81 71 67 69 73 71 68 67 70 68 69 76 90 93 93 87 83
206 210 198 184 202 228 250 272 290 294 267 246 205 167 184 170 164 163 186 194 170 148 146 128 107 89 78 68 62 66 99 121 108 82 89 93 124 151 163 167 279 25 34 32 32 32 37 41 41 48 52 51 47 48 48 52 53 53 52 49 49 47 44 47 61 71 69 60 62 58 60 62 59 65 72 79 80 77 75 80 86 89 101 112 113 103 93
193 193 194 199 217 226 226 227 241 256 256 256 204 175 177 171 178 170 192 214 181 150 154 136 121 110 112 108 101 84 75 89 126 141 145 131 88 63 109 149 156 95 50 54 38 30 37 47 46 42 46 51 52 49 48 49 50 50 49 46 45 47 50 48 42 49 71 75 68 68 73 72 71 73 72 78 100 115 114 102 86 78 74 87 89 92 92
179 173 181 193 212 230 242 234 228 240 249 259 233 173 171 164 167 200 192 168 142 143 149 142 151 152 143 131 116 123 122 111 94 98 120 144 153 149 81 86 117 122 96 76 57 46 32 37 50 53 46 49 55 60 58 56 56 55 53 46 44 44 46 45 42 40 44 56 60 51 56 81 111 114 109 102 119 124 100 103 87 68 66 71 75 76 77
186 186 189 194 199 211 225 228 223 231 239 287 318 231 167 174 190 168 164 172 177 143 137 132 130 140 136 128 132 128 116 120 132 139 113 116 124 103 92 82 86 100 100 93 75 57 45 46 42 60 66 60 59 64 69 68 65 61 59 57 55 49 41 39 45 46 43 43 47 42 33 20 20 47 33 11 45 63 75 81 80 70 63 61 61 64 67
185 184 183 187 197 203 214 224 233 250 300 290 279 284 234 191 159 145 158 157 151 147 156 132 133 135 120 116 112 125 140 127 101 106 137 150 98 79 78 86 86 82 87 94 94 82 61 45 41 42 48 62 63 58 54 57 68 76 74 70 66 59 51 46 48 57 52 47 46 41 33 31 27 23 27 40 60 70 66 69 70 67 64 60 59 62 62